Regional Weather Roundup
Issued by NWS

Home | Current Version | Previous Version | Text Only | Print | Product List | Glossary Off
Versions: 1 2 3 4 5 6 7 8 9 10 11 12 13 14 15 16 17 18 19 20 21 22 23 24 25 26 27 28 29 30 31 32 33 34 35 36 37 38 39 40 41 42 43 44 45 46 47 48 49 50

000
ASUS43 KDTX 280710
RWRMI
MICHIGAN HOURLY REGIONAL WEATHER ROUNDUP
NATIONAL WEATHER SERVICE DETROIT/PONTIAC MI
300 AM EDT WED SEP 28 2016

NOTE: "FAIR" INDICATES FEW OR NO CLOUDS BELOW 12,000 FEET WITH NO
SIGNIFICANT WEATHER AND/OR OBSTRUCTION TO VISIBILITY.

MIZ047>049-052>055-059>063-066>070-074>076-081>083-280800-
SOUTHEAST LOWER MICHIGAN

CITY           SKY/WX    TMP DP  RH WIND       PRES   REMARKS
ADRIAN         PTCLDY    49  44  83 CALM      29.83S
ALMA           CLOUDY    52  51  97 SW7       29.82R
ANN ARBOR      MOCLDY    49  46  90 CALM      29.82S
BAD AXE        CLOUDY    51  46  83 S3        29.85R
CARO           CLOUDY    51  48  91 CALM      29.83R
DETROIT CITY   CLOUDY    56  48  74 NE5       29.83S
DETROIT        CLOUDY    57  45  64 NE5       29.83S
FLINT          CLOUDY    53  48  83 SE3       29.83S
GROSSE ILE     CLOUDY    52  47  81 CALM      29.82R
HILLSDALE      CLOUDY    48  45  87 E5        29.81S
HOWELL         CLOUDY    51  48  89 CALM      29.82S

CITY           SKY/WX    TMP DP  RH WIND       PRES   REMARKS
JACKSON        CLOUDY    52  47  83 E3        29.81F
LAMBERTVILLE   PTCLDY    49  46  89 CALM      29.82S
LANSING        MOCLDY    51  46  83 E3        29.82R
LAPEER         MOCLDY    52  49  90 S6        29.84S
MASON          MOCLDY    49  47  90 CALM      29.82S
MONROE         CLOUDY    47  45  92 CALM      29.82S
MT. CLEMENS    CLOUDY    54  47  75 N6        29.82S
PONTIAC        CLOUDY    52  48  86 NE3       29.83S
PORT HURON     CLOUDY    50  50 100 CALM      29.85S
TRI CITIES     CLOUDY    53  51  93 S7        29.82R
MIDLAND        MOCLDY    53  49  89 CALM      29.81R
TROY           CLOUDY    57  46  65 NE3       29.85S
SAGINAW HB     CLOUDY    52  50  93 SE5       29.81S
$$
MIZ043>046-050>051-056>058-064>065-071>073-077>080-280800-
SOUTHWEST LOWER MICHIGAN

CITY           SKY/WX    TMP DP  RH WIND       PRES   REMARKS
BATTLE CREEK   PTCLDY    54  48  80 E6        29.81S
BENTON HARBOR  CLOUDY    54  49  83 E5        29.78F
BIG RAPIDS     MIX PCPN  51  51  98 CALM      29.79R
COLDWATER      CLOUDY    51  46  82 E6        29.80S
FREMONT        RAIN      50  50  99 S5        29.78R
HOLLAND        CLOUDY    53  51  93 CALM      29.79F
GRAND RAPIDS   CLOUDY    51  48  89 S5        29.80S
IONIA          FAIR      49  47  93 S3        29.80S
KALAMAZOO      CLOUDY    53  47  79 E3        29.81R
LUDINGTON      RAIN      50  50 100 SE5       29.76S
MARSHALL       CLOUDY    52  48  87 CALM      29.80S
MOUNT PLEASANT DRIZZLE   53  50  91 CALM      29.80R
MUSKEGON       CLOUDY    55  47  74 W7        29.79R
SOUTH HAVEN    CLOUDY    53  51  93 CALM      29.79R
$$
MIZ016>042-280800-
NORTHERN LOWER MICHIGAN

CITY           SKY/WX    TMP DP  RH WIND       PRES   REMARKS
ALPENA         CLOUDY    50  48  93 CALM      29.83S
BEAVER ISLAND  RAIN      50  50 100 CALM      29.78R
BELLAIRE       MOCLDY    48  47  95 CALM      29.79R
CADILLAC       LGT RAIN  49  47  95 SE3       29.78R
CHARLEVOIX     PTCLDY    49  49  99 E5        29.81R
FRANKFORT      LGT RAIN  51  49  92 SE3       29.76R
GAYLORD        LGT RAIN  49  46  90 SE3       29.80R FOG
GRAYLING       CLOUDY    48  47  97 CALM      29.81R
HARBOR SPRINGS PTCLDY    47  47  98 NE6       29.80R
HOUGHTON LAKE  CLOUDY    49  48  97 SE3       29.81R
MANISTEE       LGT RAIN  52  50  93 SE6       29.77R
OSCODA         DRIZZLE   51  49  93 S6        29.82S
PELLSTON       CLOUDY    49  47  93 CALM      29.81R
ROGERS CITY    CLEAR     49  47  93 CALM      29.84R
TRAVERSE CITY  MOCLDY    51  49  92 CALM      29.76R
$$
MIZ007>008-015-280800-
EASTERN UPPER MICHIGAN

CITY           SKY/WX    TMP DP  RH WIND       PRES   REMARKS
KINROSS        CLOUDY    51  50  96 E8        29.82R
MACKINAC ISLAN PTCLDY    51  51 100 SE7       29.81R
NEWBERRY       FOG       47  46  97 NE6       29.80R VSB 1/4
S. S. MARIE    MOCLDY    53  51  93 CALM      29.82R
MUNISING         N/A     52  50  93 SE7       29.77R
$$
MIZ004>006-011>014-085-280800-
CENTRAL UPPER MICHIGAN

CITY           SKY/WX    TMP DP  RH WIND       PRES   REMARKS
MANISTIQUE     CLOUDY    51  48  92 NE5       29.77R
ESCANABA       CLEAR     43  43 100 CALM      29.77R FOG
MENOMINEE      CLOUDY    50  49  96 CALM      29.77R
SAWYER-GWINN   MOCLDY    45  44  97 CALM      29.77R
$$
MIZ001>003-009>011-084-280800-
WESTERN UPPER MICHIGAN

CITY           SKY/WX    TMP DP  RH WIND       PRES   REMARKS
IRON MOUNTAIN  CLOUDY    49  46  90 NW6       29.76R
HOUGHTON       PTCLDY    52  49  89 NE9       29.81R
COPPER HARBOR    N/A     57  55  93 E9        29.82R
IRONWOOD       CLOUDY    53  52  96 N10G16    29.83R
$$

ABBREVIATIONS USED IN REMARKS
   TC - TEMPERATURE IN CELSIUS
  WCI - WIND CHILL INDEX
   HX - HEAT INDEX
  VSB - VISIBILITY




USA.gov is the U.S. government's official web portal to all federal, state and local government web resources and services.